This is the latest recevied weather packets stored in our database for station/object E25RIV-1. If no packets are shown the sender has not sent any weather packets the latest 10 day(s).
| Time | Temp. | Humidity | Pressure | Rain* | Wind** | Luminosity | Snow |
|---|---|---|---|---|---|---|---|
| 1777771210 | 35° C | 69% | 1002 hPa | - | - | 0 W/m² | - |
| 1777770586 | 35.56° C | 68% | 1001 hPa | - | - | 0 W/m² | - |
| 1777769962 | 35° C | 69% | 1001 hPa | - | - | 0 W/m² | - |
| 1777769338 | 34.44° C | 73% | 1001 hPa | - | - | 0 W/m² | - |
| 1777768714 | 34.44° C | 73% | 1001 hPa | - | - | 0 W/m² | - |
| 1777768090 | 33.89° C | 82% | 1003 hPa | - | - | 0 W/m² | - |
| 1777767466 | 32.78° C | 89% | 1003 hPa | - | - | 0 W/m² | - |
| 1777766841 | 31.67° C | 99% | 1004 hPa | - | - | 0 W/m² | - |
| 1777766217 | 30.56° C | 99% | 1004 hPa | - | - | 0 W/m² | - |
| 1777765594 | 28.89° C | 99% | 1005 hPa | - | - | 0 W/m² | - |
| 1777764970 | 27.78° C | 99% | 1005 hPa | - | - | 0 W/m² | - |
| 1777764346 | 27.22° C | 99% | 1004 hPa | - | - | 0 W/m² | - |
| 1777763721 | 27.22° C | 99% | 1004 hPa | - | - | 0 W/m² | - |
| 1777763098 | 27.22° C | 99% | 1004 hPa | - | - | 0 W/m² | - |
| 1777762474 | 27.22° C | 99% | 1004 hPa | - | - | 0 W/m² | - |
| 1777761850 | 27.22° C | 99% | 1004 hPa | - | - | 0 W/m² | - |
| 1777761226 | 27.22° C | 99% | 1004 hPa | - | - | 0 W/m² | - |
| 1777760602 | 27.22° C | 99% | 1004 hPa | - | - | 0 W/m² | - |
| 1777759978 | 27.22° C | 99% | 1004 hPa | - | - | 0 W/m² | - |
| 1777759354 | 27.78° C | 99% | 1004 hPa | - | - | 0 W/m² | - |
| 1777758730 | 27.78° C | 99% | 1004 hPa | - | - | 0 W/m² | - |
| 1777758105 | 27.78° C | 99% | 1004 hPa | - | - | 0 W/m² | - |
| 1777757481 | 27.78° C | 99% | 1004 hPa | - | - | 0 W/m² | - |
| 1777756857 | 27.78° C | 99% | 1003 hPa | - | - | 0 W/m² | - |
| 1777756234 | 27.78° C | 99% | 1003 hPa | - | - | 0 W/m² | - |
* Rain since midnight (hover to see other rain measurements)
** Current wind speed in m/s (hover to see current wind gust speed)